Location: Tamke-Allan Observatory
(35.8325°N, 84.6178°W)
Time: 19:27:44
(UTC-05:00)

OTV 5 (USA 277) - Visible Passes

Search period start: 23 February 2018 00:00
Search period end: 05 March 2018 00:00
Orbit: 404 x 417 km, 43.0° (Epoch: 07 September)

Date Brightness Start Highest point End Pass type
(mag) Time Alt. Az. Time Alt. Az. Time Alt. Az.
23 Feb ? 06:03:20 33° WNW 06:04:11 41° NNW 06:07:21 10° NE visible
24 Feb ? 05:14:44 25° NE 05:14:44 25° NE 05:16:20 10° ENE visible
25 Feb ? 05:58:49 24° NW 05:59:35 26° N 06:02:26 10° NE visible
26 Feb ? 05:10:07 19° NE 05:10:07 19° NE 05:11:24 10° NE visible
26 Feb ? 06:43:36 10° NW 06:46:17 22° N 06:48:58 10° ENE visible
27 Feb ? 05:54:08 20° NNW 05:55:04 22° N 05:57:44 10° NE visible
28 Feb ? 05:05:23 17° NNE 05:05:23 17° NNE 05:06:34 10° NE visible
28 Feb ? 06:38:52 10° NW 06:41:45 28° NNE 06:44:38 10° ENE visible
01 Mar ? 05:49:24 20° NNW 05:50:33 24° N 05:53:18 10° ENE visible
02 Mar ? 05:00:41 18° NE 05:00:41 18° NE 05:02:01 10° ENE visible
02 Mar ? 06:33:56 10° NW 06:37:08 45° NNE 06:40:18 10° E visible
03 Mar ? 05:44:46 25° NNW 05:45:59 34° NNE 05:49:01 10° E visible
04 Mar ? 04:56:09 21° NE 04:56:09 21° NE 04:57:42 10° ENE visible
04 Mar ? 06:29:03 10° WNW 06:32:21 79° SSW 06:35:37 10° ESE visible
